Flag for Japan Weather past 2 weeks in Himeji, Japan

Now
55 °F

Light rain. Partly cloudy.


Feels Like: 52 °F
Forecast: 50 / 62 °F
Wind: 12 mph from Northeast

Location: Kansai International Airport


UV Index: 0 (Low)

Visibility: N/A


Pressure: 30.01 "Hg

Humidity: 88%

Dew point: 52 °F

Location of HimejiLocation

Historic Weather in Himeji

°F

Himeji temperature yesterday

Maximum temperature yesterday: 57 °F (at 7:30 PM)
Minimum temperature yesterday: 48 °F (at 1:30 AM)
Average temperature yesterday: 53 °F

Past Weeks' High & Low Weather Summary

 TemperatureHumidityPressure
High72 °F (Apr 17, 1:00 PM)94% (Apr 10, 4:00 AM)30.18 "Hg (Apr 10, 4:00 AM)
Low43 °F (Apr 6, 1:00 AM)21% (Apr 12, 5:00 PM)29.83 "Hg (Apr 6, 2:00 AM)
Average55 °F62%30.02 "Hg
* Reported Apr 6 1:00 AM — Apr 21 1:30 AM, Himeji, Weather by CustomWeather, © 2014

Note: Actual official high and low records may vary slightly from our data, if they occured in-between our weather recording intervals... More about our weather records

Advertising

Historic Weather Conditions — Data for Previous 24 hours

 ConditionsComfort  
Time TempWeatherWind HumidityBarometerVisibility
1:30 AM
Apr 21
55 °FLight rain. Passing clouds.10 mph88%30.04 "HgN/A
1:00 AM55 °FLight rain. Passing clouds.1 mph88%30.04 "HgN/A
12:30 AM55 °FLight rain. Partly cloudy.1 mph82%30.04 "HgN/A
12:00 AM55 °FScattered showers. Partly cloudy.5 mph82%30.04 "HgN/A
11:30 PM
Apr 20
55 °FPassing clouds.7 mph82%30.04 "HgN/A
11:00 PM55 °FPassing clouds.8 mph82%30.04 "HgN/A
10:30 PM55 °FPassing clouds.6 mph82%30.04 "HgN/A
10:00 PM55 °FPartly cloudy.5 mph82%30.04 "HgN/A
9:30 PM55 °FPartly cloudy.5 mph82%30.07 "HgN/A
9:00 PM55 °FPartly cloudy.7 mph82%30.07 "HgN/A
8:30 PM55 °FPartly cloudy.7 mph77%30.07 "HgN/A
8:00 PM55 °FPassing clouds.10 mph77%30.07 "HgN/A
7:30 PM57 °FPassing clouds.8 mph72%30.04 "HgN/A
7:00 PM55 °FPassing clouds.1 mph77%30.04 "HgN/A
6:30 PM54 °FBroken clouds.2 mph82%30.07 "HgN/A
6:00 PM55 °FBroken clouds.2 mph72%30.07 "HgN/A
5:30 PM55 °FBroken clouds.6 mph72%30.07 "HgN/A
5:00 PM55 °FBroken clouds.5 mph72%30.04 "HgN/A
4:30 PM55 °FLight rain. Partly sunny.5 mph72%30.04 "HgN/A
4:00 PM54 °FLight rain. Broken clouds.2 mph77%30.04 "HgN/A
3:30 PM54 °FLight rain. Partly sunny.2 mph77%30.07 "HgN/A
3:00 PM54 °FLight rain. Broken clouds.1 mph77%30.07 "HgN/A
2:30 PM54 °FLight rain. Broken clouds.2 mph72%30.07 "HgN/A
2:00 PM54 °FLight rain. Broken clouds.3 mph72%30.09 "HgN/A
1:30 PM54 °FBroken clouds.No wind67%30.09 "HgN/A
1:00 PM52 °FScattered showers. Partly sunny.1 mph72%30.09 "HgN/A
12:30 PM52 °FPartly sunny.3 mph72%30.09 "HgN/A
12:00 PM52 °FPartly sunny.3 mph72%30.12 "HgN/A
11:30 AM52 °FBroken clouds.3 mph67%30.12 "HgN/A
11:00 AM52 °FLight rain. Broken clouds.3 mph72%30.15 "HgN/A
10:30 AM52 °FLight rain. Broken clouds.3 mph67%30.15 "HgN/A
10:00 AM52 °FLight rain. Broken clouds.3 mph62%30.15 "HgN/A
9:30 AM52 °FMore clouds than sun.6 mph62%30.15 "HgN/A
9:00 AM52 °FMostly cloudy.7 mph62%30.12 "HgN/A
8:30 AM52 °FMostly cloudy.8 mph62%30.12 "HgN/A
8:00 AM52 °FPartly sunny.9 mph62%30.09 "HgN/A
7:30 AM50 °FPartly sunny.9 mph67%30.09 "HgN/A
7:00 AM50 °FPartly sunny.10 mph67%30.09 "HgN/A
6:30 AM50 °FPartly sunny.6 mph71%30.12 "HgN/A
6:00 AM50 °FBroken clouds.9 mph67%30.12 "HgN/A
5:30 AM50 °FBroken clouds.10 mph67%30.12 "HgN/A
5:00 AM50 °FPartly cloudy.13 mph67%30.09 "HgN/A
4:30 AM50 °FPartly cloudy.10 mph67%30.12 "HgN/A
4:00 AM50 °FPartly cloudy.12 mph62%30.12 "HgN/A
3:30 AM50 °FPassing clouds.9 mph67%30.12 "HgN/A
3:00 AM50 °FPassing clouds.9 mph67%30.09 "HgN/A
2:30 AM50 °FPassing clouds.8 mph67%30.12 "HgN/A
2:00 AM50 °FPassing clouds.6 mph67%30.12 "HgN/A
Weather by CustomWeather, © 2014

See weather overview